, LA

(GMT )
Boothville

Weather History for KBVE - December, 2012

Change the Weather History Date:

Thursday, December 6, 2012

  Actual Average Record
Temperature  
Mean Temperature 66 °F -  
Max Temperature 73 °F - - ()
Min Temperature 60 °F - - ()
Cooling Degree Days 2    
Growing Degree Days 16 (Base 50)    
Moisture  
Dew Point 64 °F    
Average Humidity 95    
Maximum Humidity 100    
Minimum Humidity 71    
Precipitation  
Precipitation 0.00 in - - ()
Sea Level Pressure  
Sea Level Pressure 29.98 in    
Wind  
Wind Speed 4 mph (ESE)    
Max Wind Speed 14 mph    
Max Gust Speed -    
Visibility 7 miles    
Events Fog , Rain    
T = Trace of Precipitation, MM = Missing Value Source: NWS Daily Summary

Daily Weather History Graph

Daily Weather History Graph

Search for Another Location

Airport or City:

Trip Planner

Search our weather history database for the weather conditions in past years. The results will help you decide how hot, cold, wet, or windy it might be!

Date:

Astronomy

Dec. 06, 2012 Rise Set
Actual Time 6:38 AM CST 4:59 PM CST
Civil Twilight 6:12 AM CST 5:25 PM CST
Nautical Twilight 5:43 AM CST 5:54 PM CST
Astronomical Twilight 5:14 AM CST 6:23 PM CST
Moon No Moon Rise 11:57 AM CST (12/6)
Length of Visible Light 11h 12m
Length of Day
10h 20m
Waning Gibbous, 49% of the Moon is Illuminated
Dec 6
Waning Gibbous
Dec 13
New
Dec 19
First Quarter
Dec 28
Full
Jan 4
Last Quarter

Hourly Weather History & Observations

Time (CST) Temp. Dew Point Humidity Pressure Visibility Wind Dir Wind Speed Gust Speed Precip Events Conditions
12:51 AM 62.1 °F 62.1 °F 100% 30.01 in 10.0 mi ESE 3.5 mph - N/A   Clear
1:51 AM 63.0 °F 63.0 °F 100% 29.99 in 10.0 mi ESE 6.9 mph - N/A   Clear
2:51 AM 63.0 °F 63.0 °F 100% 29.99 in 10.0 mi ESE 4.6 mph - N/A   Clear
3:51 AM 61.0 °F 61.0 °F 100% 29.98 in 7.0 mi Calm Calm - N/A   Clear
3:56 AM 60.8 °F 60.8 °F 100% 29.98 in 1.5 mi Calm Calm - N/A   Clear
4:43 AM 60.8 °F 60.8 °F 100% 29.98 in 3.0 mi Calm Calm - N/A   Clear
4:51 AM 60.1 °F 60.1 °F 100% 29.99 in 6.0 mi Calm Calm - N/A   Clear
5:51 AM 63.0 °F 63.0 °F 100% 29.99 in 10.0 mi ENE 3.5 mph - N/A   Overcast
6:51 AM 63.0 °F 63.0 °F 100% 30.01 in 10.0 mi East 4.6 mph - N/A   Overcast
7:51 AM 66.0 °F 64.9 °F 96% 30.01 in 10.0 mi ENE 3.5 mph - N/A   Scattered Clouds
8:51 AM 68.0 °F 66.0 °F 93% 30.01 in 10.0 mi ENE 4.6 mph - N/A   Clear
9:51 AM 71.1 °F 66.9 °F 87% 30.02 in 10.0 mi NE 3.5 mph - N/A   Partly Cloudy
10:05 AM 69.8 °F 66.2 °F 88% 30.02 in 10.0 mi East 3.5 mph - N/A   Mostly Cloudy
10:33 AM 71.6 °F 66.2 °F 83% 30.01 in 10.0 mi East 6.9 mph - N/A   Overcast
10:51 AM 73.0 °F 66.9 °F 81% 30.01 in 10.0 mi ESE 8.1 mph - N/A   Mostly Cloudy
11:51 AM 70.0 °F 64.0 °F 81% 29.99 in 10.0 mi ESE 9.2 mph - N/A   Overcast
12:51 PM 73.9 °F 64.0 °F 71% 29.95 in 10.0 mi ESE 13.8 mph - N/A   Partly Cloudy
1:51 PM 72.0 °F 64.0 °F 76% 29.94 in 10.0 mi East 8.1 mph - N/A   Overcast
2:51 PM 72.0 °F 64.0 °F 76% 29.94 in 10.0 mi ESE 6.9 mph - N/A   Overcast
3:51 PM 68.0 °F 66.0 °F 93% 29.95 in 10.0 mi South 6.9 mph - 0.00 in   Overcast
4:51 PM 68.0 °F 66.9 °F 96% 29.95 in 8.0 mi SSW 3.5 mph - 0.00 in Rain Light Rain
5:51 PM 66.9 °F 66.0 °F 97% 29.96 in 10.0 mi South 9.2 mph - N/A   Overcast
6:51 PM 66.0 °F 66.0 °F 100% 29.96 in 10.0 mi SSW 4.6 mph - 0.00 in   Overcast
7:51 PM 66.0 °F 66.0 °F 100% 29.97 in 10.0 mi Calm Calm - N/A   Overcast
8:51 PM 64.9 °F 64.9 °F 100% 29.98 in 9.0 mi Calm Calm - N/A   Mostly Cloudy
9:35 PM 62.6 °F 62.6 °F 100% 29.97 in 1.5 mi Calm Calm - N/A   Partly Cloudy
9:38 PM 62.6 °F 62.6 °F 100% 29.97 in 0.8 mi ENE 3.5 mph - N/A   Partly Cloudy
9:51 PM 63.0 °F 63.0 °F 100% 29.97 in 1.2 mi ENE 3.5 mph - N/A   Partly Cloudy
9:59 PM 62.6 °F 62.6 °F 100% 29.97 in 2.0 mi ENE 3.5 mph - N/A   Partly Cloudy
10:08 PM 62.6 °F 62.6 °F 100% 29.96 in 1.5 mi Calm Calm - N/A   Clear
10:17 PM 62.6 °F 62.6 °F 100% 29.96 in 3.0 mi Calm Calm - N/A   Clear
10:51 PM 63.0 °F 63.0 °F 100% 29.96 in 5.0 mi Calm Calm - N/A   Clear
11:24 PM 62.6 °F 62.6 °F 100% 29.96 in 1.8 mi Calm Calm - N/A   Clear
11:35 PM 62.6 °F 62.6 °F 100% 29.96 in 0.5 mi Calm Calm - N/A Fog Fog
11:51 PM 62.1 °F 62.1 °F 100% 29.96 in 0.5 mi Calm Calm - N/A Fog Fog